Regional Weather Roundup
Issued by NWS Upton, NY

Current Version | Previous Version | Graphics & Text | Print | Product List | Glossary Off
Versions: 1 2 3 4 5 6 7 8 9 10 11 12 13 14 15 16 17 18 19 20 21 22 23 24 25 26 27 28 29 30 31 32 33 34 35 36 37 38 39 40 41 42 43 44 45 46 47 48 49 50
113 ASUS41 KOKX 300508 RWROKX REGIONAL WEATHER ROUNDUP NATIONAL WEATHER SERVICE NEW YORK NY 100 AM EDT SUN APR 30 2017 NOTE: "FAIR" INDICATES FEW OR NO CLOUDS BELOW 12,000 FEET WITH NO SIGNIFICANT WEATHER AND/OR OBSTRUCTIONS TO VISIBILITY. NYZ071-072-176-178-NJZ106-104-300600- NEW YORK CITY METRO AREA CITY SKY/WX TMP DP RH WIND PRES REMARKS Central Park CLOUDY 68 52 56 VRB5 30.15S Wall St Helipt CLOUDY 68 53 58 CALM 30.13S Bronx Bot Gard N/A 66 50 55 NW8 30.13S LaGuardia APRT CLOUDY 68 51 54 NW9 30.11S Kennedy INTL MOCLDY 70 54 56 N15 30.12R Breezy Point N/A 68 N/A N/A N10G17 N/A Newark/Liberty MOCLDY 69 53 56 NW13 30.12S Teterboro PTCLDY 66 52 60 NW7 30.12R $$ NYZ177-179-078>081-300600- LONG ISLAND NEW YORK CITY SKY/WX TMP DP RH WIND PRES REMARKS Jones Beach N/A 66 N/A N/A N13 N/A Matinecock PT NOT AVBL Farmingdale CLOUDY 68 53 58 NW7 30.12R MacArthur/ISP MOCLDY 66 56 70 NW7 30.11R Shirley NOT AVBL Mt Sinai Harb N/A 59 N/A N/A CALM N/A Westhampton CLEAR 60 51 72 W3 30.13R East Hampton N/A 64 51 64 NW3 30.10R Montauk NOT AVBL $$ NYZ052-065-067-300600- HUDSON VALLEY CITY SKY/WX TMP DP RH WIND PRES REMARKS White Plains CLEAR 64 50 60 W9 30.11S Larchmont Harb N/A 66 N/A N/A W3 N/A Croton O-T Hud N/A 64 N/A N/A NW5 N/A Newburgh CLEAR 59 50 72 W9 30.16R Montgomery CLEAR 55 49 80 W7 30.15R Poughkeepsie CLEAR 59 49 69 NW6 30.13R Albany CLEAR 51 33 50 NW12G23 30.21R $$ NJZ001-105-106-008-010-013-015-019>022-104-300600- NEW JERSEY CITY SKY/WX TMP DP RH WIND PRES REMARKS Newark/Liberty MOCLDY 69 53 56 NW13 30.12S Teterboro PTCLDY 66 52 60 NW7 30.12R Caldwell PTCLDY 66 52 60 N3 30.14S Somerville CLEAR 67 54 63 N5 30.11S Linden N/A 68 53 57 N8 30.13R Perth Amboy N/A 68 N/A N/A N8 N/A Sussex CLEAR 59 50 72 NE3 30.17R Andover NOT AVBL Trenton CLEAR 69 58 67 N8 30.12R Millville MOCLDY 68 67 96 NE3 30.08S Atlantic City MOCLDY 69 61 75 CALM 30.09S Wrightstown CLEAR 65 60 82 N3 30.09R Toms River CLEAR 65 60 84 CALM 30.12R Belmar MOCLDY 69 59 70 NE9 30.13R $$ PAZ047>061-062-071-300600- EASTERN PENNSYLVANIA CITY SKY/WX TMP DP RH WIND PRES REMARKS Philadelphia PTCLDY 73 60 63 NE10 30.11R Allentown CLEAR 63 54 72 N3 30.14S Scranton CLEAR 59 45 59 N15 30.19R $$ CTZ002-004>006-009-010-012-RIZ004-006-007-MAZ004-011-015-300600- SOUTHERN NEW ENGLAND IN CT CITY SKY/WX TMP DP RH WIND PRES REMARKS Bradley INTL PTCLDY 60 37 42 N8 30.14R Hartford CLEAR 63 41 44 NW12G22 30.12R Danbury CLEAR 60 52 74 N3 30.14R Wtrbury/Oxford CLEAR 61 45 55 N9 30.14R Bridgeport CLEAR 67 52 58 NW6 30.10R Meriden CLEAR 65 47 52 N8 30.12R New Haven CLEAR 65 50 58 N6 30.10R Chester N/A 64 48 55 NW8G15 30.10S Groton CLEAR 66 46 48 NW12 30.09R Wilimantic CLEAR 64 40 41 N12G23 30.12R IN RI CITY SKY/WX TMP DP RH WIND PRES REMARKS Providence CLEAR 65 40 39 NW10 30.09R Block Island CLEAR 63 50 62 W10 30.09R Westerly CLEAR 67 46 47 NW9 30.10R IN MA CITY SKY/WX TMP DP RH WIND PRES REMARKS Boston CLEAR 64 41 42 W14 30.07R Worcester CLEAR 56 36 47 W9 30.12R Westfield CLEAR 57 37 47 NW10 30.15R Provincetown CLEAR 55 46 71 W12 30.04R Nantucket CLOUDY 66 48 52 W16G22 30.04R $$ ANZ330-335-338-340-345-350-353-355-300600- COASTAL MARINE OBSERVATIONS STATION/POSITION TIME SKY/WX TEMP WIND PRES VSBY WAVE AIR SEA DIR/SP/G HT/PER (UTC) (F) (DEG/KT/KT) (MB) (MI) (FT/S) NY HARB ENTRANCE 0350 60 51 350/ 8/ 8 1019.1 3/ 6 20 S FIRE ISLAND 0450 58 50 360/ 10/ 12 1019.0 4/ 6 GREAT SOUTH BAY 0430 67 61 320/ 6/ 8 N/A 23 SSW MONTAUK P 0350 56 48 1018.9 4/ 7 15 E BARNEGAT LI 0430 56 N/A 4/ 7 HUDSON CANYON 0350 53 50 250/ 6/ 6 1019.3 5/ 7 KINGS POINT 0448 61 54 10/ 6/ 9 1019.9 EXECUTION ROCKS NOT AVBL CENTRAL LI SOUND 0430 56 340/ 6/ 8 N/A 1 EASTERN LI SOUND NOT AVBL ROBBINS REEF 0448 68 340/ 11/ 15 1020.2 $$ >>>>>>>>>>>>>>>>>>>>>>>>>>>> KEY <<<<<<<<<<<<<<<<<<<<<<<<<<< > < > SKY/WX - Sky Condition/Present Weather < > TMP - Temperature in Fahrenheit < > DP - Dew Point in Fahrenheit < > RH - Relative Humidity in Percent < > WIND - Direction (from) and Speed in MPH < > PRES - Mean Sea Level Pressure (inches of Hg) < > WCI - Wind Chill Index < > VSB - VISIBILITY IN MILES < > HX - HEAT INDEX < > TC - TEMPERATURE IN CELSIUS < > VRB - VARIABLE WIND DIRECTION < > < >>>>>>>>>>>>>>>>>>>>>>>>>>>> KEY <<<<<<<<<<<<<<<<<<<<<<<<<<<

USA.gov is the U.S. government's official web portal to all federal, state and local government web resources and services.